Weather History for KDFI - April, 2014

Change the Weather History Date:

Sunday, April 13, 2014

  Actual Average Record
Temperature  
Mean Temperature 70 °F -  
Max Temperature 78 °F 59 °F 86 °F (1941)
Min Temperature 61 °F 36 °F 19 °F (1950)
Cooling Degree Days 4    
Growing Degree Days 20 (Base 50)    
Moisture  
Dew Point 53 °F    
Average Humidity 57    
Maximum Humidity 70    
Minimum Humidity 44    
Precipitation  
Precipitation 0.00 in - - ()
Sea Level Pressure  
Sea Level Pressure 29.77 in    
Wind  
Wind Speed 9 mph (SSW)    
Max Wind Speed 20 mph    
Max Gust Speed 32 mph    
Visibility 10 miles    
Events      
Averages and records for this station are not official NWS values.
T = Trace of Precipitation, MM = Missing Value Source: NWS Daily Summary

Daily Weather History Graph

Daily Weather History Graph

Search for Another Location

Airport or City:

Trip Planner

Search our weather history database for the weather conditions in past years. The results will help you decide how hot, cold, wet, or windy it might be!

Date:

Astronomy

Apr. 13, 2014 Rise Set
Actual Time 7:01 AM EDT 8:15 PM EDT
Civil Twilight 6:32 AM EDT 8:44 PM EDT
Nautical Twilight 5:58 AM EDT 9:18 PM EDT
Astronomical Twilight 5:22 AM EDT 9:54 PM EDT
Moon 6:52 PM EDT (4/13) 6:00 AM EDT (4/13)
Length of Visible Light 14h 11m
Length of Day
13h 14m
Waxing Gibbous, 97% of the Moon is Illuminated
Apr 13
Waxing Gibbous
Apr 15
Full
Apr 22
Last Quarter
Apr 29
New
May 6
First Quarter

Hourly Weather History & Observations

Time (EDT) Temp. Dew Point Humidity Pressure Visibility Wind Dir Wind Speed Gust Speed Precip Events Conditions
12:53 AM 63.0 °F 51.1 °F 65% 29.83 in 10.0 mi Calm Calm - N/A   Mostly Cloudy
1:53 AM 64.0 °F 51.1 °F 63% 29.82 in 10.0 mi SSE 3.5 mph - N/A   Mostly Cloudy
2:53 AM 63.0 °F 51.1 °F 65% 29.83 in 10.0 mi South 3.5 mph - N/A   Overcast
3:53 AM 64.0 °F 51.1 °F 63% 29.81 in 10.0 mi South 8.1 mph - N/A   Mostly Cloudy
4:53 AM 63.0 °F 51.1 °F 65% 29.80 in 10.0 mi South 8.1 mph - N/A   Partly Cloudy
5:53 AM 63.0 °F 51.1 °F 65% 29.79 in 10.0 mi South 11.5 mph - N/A   Overcast
6:53 AM 61.0 °F 51.1 °F 70% 29.79 in 10.0 mi South 12.7 mph - N/A   Clear
7:53 AM 63.0 °F 52.0 °F 67% 29.79 in 10.0 mi SSW 15.0 mph 21.9 mph N/A   Clear
8:53 AM 64.9 °F 53.1 °F 65% 29.79 in 10.0 mi SSW 13.8 mph 21.9 mph N/A   Clear
9:53 AM 69.1 °F 55.0 °F 61% 29.80 in 10.0 mi SSW 19.6 mph 29.9 mph N/A   Scattered Clouds
10:53 AM 69.1 °F 55.0 °F 61% 29.81 in 10.0 mi SW 17.3 mph - N/A   Overcast
11:53 AM 73.0 °F 55.9 °F 55% 29.79 in 10.0 mi SW 16.1 mph 27.6 mph N/A   Scattered Clouds
12:53 PM 73.0 °F 55.9 °F 55% 29.79 in 10.0 mi SW 19.6 mph 31.1 mph N/A   Overcast
1:53 PM 73.0 °F 55.9 °F 55% 29.80 in 10.0 mi SW 13.8 mph 32.2 mph N/A   Overcast
2:53 PM 75.0 °F 55.0 °F 50% 29.79 in 10.0 mi SW 15.0 mph 29.9 mph N/A   Mostly Cloudy
3:53 PM 73.9 °F 55.0 °F 52% 29.77 in 10.0 mi SSW 13.8 mph - N/A   Overcast
4:53 PM 75.9 °F 53.1 °F 45% 29.75 in 10.0 mi SSW 15.0 mph 27.6 mph N/A   Clear
5:53 PM 78.1 °F 55.0 °F 45% 29.73 in 10.0 mi SSW 13.8 mph 26.5 mph N/A   Mostly Cloudy
6:53 PM 75.9 °F 54.0 °F 46% 29.72 in 10.0 mi SW 12.7 mph 20.7 mph N/A   Mostly Cloudy
8:53 PM 72.0 °F 52.0 °F 49% 29.68 in 10.0 mi South 6.9 mph - N/A   Mostly Cloudy
9:53 PM 71.1 °F 52.0 °F 51% 29.67 in 10.0 mi South 10.4 mph - N/A   Clear
10:53 PM 73.0 °F 50.0 °F 44% 29.66 in 10.0 mi South 13.8 mph 21.9 mph N/A   Partly Cloudy
11:53 PM 71.1 °F 50.0 °F 47% 29.63 in 10.0 mi South 15.0 mph - N/A   Partly Cloudy